Date String (YYYY-MM-DD hh:mm:ss) UTC,Instrument flags,Ambient pressure (hPa),Sample flow (lpm),Bypass flow (lpm),Sample temperature (°C),Ambient temperature (°C),ASC tube jacket temperature (°C),LED temperature (°C),Box temperature (°C),Sample RH (%),Span deviation,Mass concentration (μg/m³),Mass concentration (μg/m³),Mass concentration (μg/m³)
DateTimeUTC,F1_M11,P_M11,Q1_M11,Q2_M11,T1_M11,T2_M11,T3_M11,T4_M11,T5_M11,U1_M11,ZSPAN_M11,X0_M11,X2_M11,X1_M11
2022-04-19 00:00:00,,0825.9,4.99,0.00,29.6,28.9,00.0,38.4,31.4,09.2,0005.1,0028.27,0009.45,0006.59
2022-04-19 00:01:00,,0825.9,5.01,0.00,29.6,28.9,00.0,38.4,31.4,09.1,0004.9,0028.25,0009.50,0006.62
2022-04-19 00:02:00,,0825.9,5.00,0.00,29.6,28.9,00.0,38.4,31.4,09.2,0005.0,0029.48,0009.52,0006.66
2022-04-19 00:03:00,,0825.9,5.01,0.00,29.6,28.9,00.0,38.4,31.4,09.1,0004.8,0029.33,0009.61,0006.74
2022-04-19 00:04:00,,0825.8,4.99,0.00,29.6,28.9,00.0,38.4,31.4,09.0,0004.4,0029.43,0009.66,0006.83
2022-04-19 00:05:00,,0825.9,4.99,0.00,29.6,28.9,00.0,38.4,31.4,09.0,0004.9,0029.06,0009.61,0006.90
2022-04-19 00:06:00,,0825.9,5.01,0.00,29.7,28.9,00.0,38.5,31.4,09.0,0003.6,0028.43,0009.63,0006.97
2022-04-19 00:07:00,,0825.8,5.01,0.00,29.7,28.9,00.0,38.5,31.4,09.0,0003.0,0027.19,0009.64,0007.03
2022-04-19 00:08:00,,0825.9,5.00,0.00,29.7,28.9,00.0,38.5,31.5,09.0,0002.8,0027.39,0009.81,0007.09
2022-04-19 00:09:00,,0825.9,4.99,0.00,29.7,28.9,00.0,38.5,31.5,09.0,0002.3,0027.38,0009.83,0007.08
2022-04-19 00:10:00,,0825.9,5.00,0.00,29.7,29.0,00.0,38.5,31.5,09.0,0001.6,0027.36,0009.77,0007.08
2022-04-19 00:11:00,,0825.9,5.01,0.00,29.7,29.0,00.0,38.5,31.5,09.0,0001.3,0027.97,0009.75,0007.10
2022-04-19 00:12:00,,0825.7,4.99,0.00,29.7,29.0,00.0,38.5,31.5,09.0,0001.5,0028.50,0009.76,0007.12
2022-04-19 00:13:00,,0825.8,4.99,0.00,29.7,29.0,00.0,38.5,31.5,09.1,0001.3,0028.96,0009.84,0007.14
2022-04-19 00:14:00,,0825.8,5.01,0.00,29.7,29.0,00.0,38.5,31.5,09.1,0000.9,0029.69,0009.84,0007.11
2022-04-19 00:15:00,,0825.7,5.01,0.00,29.8,29.0,00.0,38.5,31.5,09.1,0001.1,0029.77,0009.73,0007.06
2022-04-19 00:16:00,,0825.7,5.00,0.00,29.8,29.1,00.0,38.5,31.5,09.1,0000.2,0029.80,0009.65,0007.04
2022-04-19 00:17:00,,0825.7,4.99,0.00,29.8,29.1,00.0,38.6,31.5,09.1,-000.2,0029.65,0009.65,0007.03
2022-04-19 00:18:00,,0825.7,5.02,0.00,29.8,29.1,00.0,38.6,31.6,09.1,-000.1,0029.58,0009.60,0006.96
2022-04-19 00:19:00,,0825.7,5.00,0.00,29.8,29.1,00.0,38.6,31.6,09.0,-000.0,0028.57,0009.45,0006.90
2022-04-19 00:20:00,,0825.7,5.00,0.00,29.8,29.1,00.0,38.6,31.6,09.1,-000.3,0029.67,0009.37,0006.85
2022-04-19 00:21:00,,0825.6,5.00,0.00,29.8,29.1,00.0,38.6,31.6,09.1,-000.6,0030.98,0009.37,0006.79
2022-04-19 00:22:00,,0825.6,5.02,0.00,29.8,29.1,00.0,38.6,31.6,09.1,-000.3,0030.27,0009.36,0006.72
2022-04-19 00:23:00,,0825.6,4.99,0.00,29.8,29.1,00.0,38.6,31.6,09.1,-000.9,0030.53,0009.23,0006.66
2022-04-19 00:24:00,,0825.6,5.00,0.00,29.9,29.1,00.0,38.6,31.6,09.0,-000.7,0029.75,0009.21,0006.63
2022-04-19 00:25:00,,0825.6,5.02,0.00,29.9,29.2,00.0,38.7,31.6,09.0,-000.7,0028.59,0009.18,0006.65
2022-04-19 00:26:00,,0825.6,5.00,0.00,29.9,29.2,00.0,38.7,31.6,09.0,-000.9,0028.20,0009.29,0006.68
2022-04-19 00:27:00,,0825.6,5.00,0.00,29.9,29.2,00.0,38.7,31.7,09.0,-000.8,0027.87,0009.43,0006.69
2022-04-19 00:28:00,,0825.6,4.99,0.00,29.9,29.2,00.0,38.7,31.7,09.0,-000.8,0027.87,0009.43,0006.69
2022-04-19 00:29:00,,0825.6,5.01,0.00,29.9,29.2,00.0,38.7,31.7,09.0,0011.1,0028.44,0009.39,0006.70
2022-04-19 00:30:00,,0825.6,5.01,0.00,29.9,29.2,00.0,38.7,31.7,09.0,0000.3,0028.79,0009.36,0006.69
2022-04-19 00:31:00,,0825.6,4.99,0.00,29.9,29.2,00.0,38.7,31.7,09.1,0000.3,0028.36,0009.34,0006.65
2022-04-19 00:32:00,,0825.6,4.99,0.00,29.9,29.2,00.0,38.7,31.7,09.0,0000.6,0026.29,0009.25,0006.61
2022-04-19 00:33:00,,0825.5,5.01,0.00,29.9,29.2,00.0,38.7,31.7,09.1,0001.1,0026.35,0009.15,0006.54
2022-04-19 00:34:00,,0825.5,5.00,0.00,29.9,29.2,00.0,38.7,31.7,09.1,0001.4,0025.66,0009.17,0006.48
2022-04-19 00:35:00,,0825.5,4.99,0.00,29.9,29.2,00.0,38.8,31.7,09.1,0000.6,0026.58,0009.05,0006.38
2022-04-19 00:36:00,,0825.6,5.01,0.00,29.9,29.2,00.0,38.8,31.8,09.0,0000.2,0027.31,0008.94,0006.25
2022-04-19 00:37:00,,0825.6,5.00,0.00,30.0,29.2,00.0,38.8,31.7,09.1,0000.4,0027.20,0008.75,0006.12
2022-04-19 00:38:00,,0825.5,4.99,0.00,30.0,29.2,00.0,38.8,31.8,09.1,0001.0,0027.75,0008.61,0006.02
2022-04-19 00:39:00,,0825.5,4.99,0.00,30.0,29.2,00.0,38.8,31.8,09.0,0001.1,0027.40,0008.53,0005.92
2022-04-19 00:40:00,,0825.5,5.02,0.00,30.0,29.3,00.0,38.8,31.8,09.0,0000.7,0026.95,0008.47,0005.83
2022-04-19 00:41:00,,0825.5,4.99,0.00,30.0,29.3,00.0,38.8,31.8,09.0,0000.0,0026.22,0008.51,0005.81
2022-04-19 00:42:00,,0825.5,5.01,0.00,30.0,29.3,00.0,38.8,31.8,08.9,-000.1,0026.33,0008.58,0005.86
2022-04-19 00:43:00,,0825.5,5.02,0.00,30.0,29.3,00.0,38.8,31.8,08.9,0000.3,0027.56,0008.61,0005.92
2022-04-19 00:44:00,,0825.5,4.99,0.00,30.1,29.3,00.0,38.8,31.8,08.9,0001.0,0027.98,0008.72,0005.99
2022-04-19 00:45:00,,0825.5,5.00,0.00,30.1,29.4,00.0,38.9,31.9,08.8,0001.1,0028.42,0008.74,0006.06
2022-04-19 00:46:00,,0825.4,5.01,0.00,30.1,29.4,00.0,38.9,31.9,08.8,0003.0,0028.36,0008.78,0006.14
2022-04-19 00:47:00,,0825.4,4.99,0.00,30.1,29.4,00.0,38.9,31.9,08.8,0005.2,0027.00,0008.89,0006.21
2022-04-19 00:48:00,,0825.4,5.01,0.00,30.1,29.4,00.0,38.9,31.9,08.9,0007.5,0026.56,0009.01,0006.28
2022-04-19 00:49:00,,0825.5,5.01,0.00,30.1,29.4,00.0,38.9,31.9,08.9,0010.8,0025.54,0009.05,0006.33
2022-04-19 00:50:00,,0825.5,4.99,0.00,30.1,29.4,00.0,38.9,31.9,08.9,0009.5,0026.57,0009.05,0006.33
2022-04-19 00:51:00,,0825.4,5.00,0.00,30.1,29.4,00.0,38.9,31.9,09.0,0008.7,0027.84,0009.07,0006.32
2022-04-19 00:52:00,,0825.4,5.00,0.00,30.1,29.5,00.0,38.9,31.9,08.9,0009.2,0028.68,0009.02,0006.31
2022-04-19 00:53:00,,0825.4,5.01,0.00,30.1,29.4,00.0,39.0,31.9,08.9,0009.6,0028.28,0008.88,0006.23
2022-04-19 00:54:00,,0825.4,4.99,0.00,30.2,29.5,00.0,39.0,32.0,08.9,0010.0,0027.54,0008.81,0006.14
2022-04-19 00:55:00,,0825.4,5.01,0.00,30.2,29.5,00.0,39.0,31.9,08.9,0009.7,0028.75,0008.72,0006.06
2022-04-19 00:56:00,,0825.4,4.99,0.00,30.2,29.5,00.0,39.0,32.0,09.0,0009.4,0030.56,0008.63,0005.98
2022-04-19 00:57:00,,0825.4,5.00,0.00,30.2,29.5,00.0,39.0,32.0,08.9,0010.4,0029.64,0008.55,0005.89
2022-04-19 00:58:00,,0825.3,5.01,0.00,30.2,29.5,00.0,39.0,32.0,08.9,0010.7,0030.58,0008.51,0005.85
2022-04-19 00:59:00,,0825.3,5.00,0.00,30.2,29.5,00.0,39.0,32.0,08.8,0007.9,0030.90,0008.46,0005.80
